LIC2510 LEMD-GCTS

Flight info

Callsign LIC2510
Flight time 2h 35m
Altitude 31000
Route CCS DCT ELVAR/N0496F450 DCT TROIA DCT BEXAL UN866 KONBA
Aircraft C750/M-SBDE3FGHRWXY/S

Departure

Time 2026-05-07 06:54
Airport Adolfo Suárez Madrid–Barajas Airport (LEMD)

Arrival

Time 2026-05-07 09:29
Airport Tenerife Sur Airport (GCTS)
Time Latitude Longitude Altitude Speed Heading
2026-05-07 06:31 40.47816 -3.57420 2001 ft 0 kts 253°
2026-05-07 06:47 40.47816 -3.57421 1999 ft 2 kts 256°
2026-05-07 06:47 40.47837 -3.57444 2000 ft 7 kts 342°
2026-05-07 06:48 40.47843 -3.57443 2001 ft 0 kts
2026-05-07 06:48 40.47882 -3.57416 2000 ft 8 kts
2026-05-07 06:48 40.47935 -3.57430 1999 ft 8 kts 339°
2026-05-07 06:49 40.47996 -3.57488 1999 ft 14 kts 322°
2026-05-07 06:49 40.48077 -3.57588 1996 ft 17 kts 323°
2026-05-07 06:49 40.48179 -3.57678 1993 ft 18 kts 329°
2026-05-07 06:49 40.48280 -3.57777 1990 ft 19 kts 321°
2026-05-07 06:50 40.48387 -3.57873 1988 ft 18 kts 329°
2026-05-07 06:50 40.48484 -3.57949 1993 ft 13 kts 329°
2026-05-07 06:50 40.48545 -3.57996 1997 ft 9 kts 329°
2026-05-07 06:50 40.48599 -3.58029 1999 ft 8 kts 347°
2026-05-07 06:51 40.48651 -3.58044 1999 ft 7 kts 350°
2026-05-07 06:51 40.48723 -3.58051 1999 ft 14 kts 358°
2026-05-07 06:51 40.48841 -3.58045 1999 ft 19 kts 359°
2026-05-07 06:51 40.48980 -3.58044 1999 ft 19 kts 358°
2026-05-07 06:52 40.49107 -3.58052 1999 ft 17 kts 359°
2026-05-07 06:52 40.49214 -3.58035 1997 ft 13 kts 33°
2026-05-07 06:52 40.49242 -3.57948 1996 ft 9 kts 85°
2026-05-07 06:52 40.49245 -3.57880 1993 ft 6 kts 90°
2026-05-07 06:53 40.49245 -3.57860 1992 ft 0 kts 91°
2026-05-07 06:53 40.49244 -3.57823 1991 ft 8 kts 92°
2026-05-07 06:53 40.49246 -3.57726 1987 ft 13 kts 86°
2026-05-07 06:53 40.49257 -3.57602 1985 ft 14 kts 79°
2026-05-07 06:54 40.49313 -3.57494 1981 ft 16 kts 32°
2026-05-07 06:54 40.49699 -3.57463 1983 ft 108 kts
2026-05-07 06:54 40.50629 -3.57487 2261 ft 146 kts
2026-05-07 06:54 40.51699 -3.57511 2821 ft 161 kts
2026-05-07 06:55 40.52848 -3.57503 3518 ft 169 kts
2026-05-07 06:55 40.54053 -3.57510 4260 ft 178 kts
2026-05-07 06:55 40.54885 -3.57532 4758 ft 183 kts 359°
2026-05-07 06:55 40.56118 -3.58153 5414 ft 201 kts 323°
2026-05-07 06:56 40.56949 -3.59658 6184 ft 210 kts 287°
2026-05-07 06:56 40.57046 -3.61552 7061 ft 209 kts 260°
2026-05-07 06:56 40.56850 -3.63452 8065 ft 211 kts 259°
2026-05-07 06:56 40.56660 -3.65374 9110 ft 213 kts 259°
2026-05-07 06:57 40.56471 -3.67298 10144 ft 211 kts 258°
2026-05-07 06:57 40.56281 -3.69206 11068 ft 209 kts 259°
2026-05-07 06:57 40.56092 -3.71096 11996 ft 208 kts 259°
2026-05-07 06:57 40.55903 -3.72978 12888 ft 207 kts 259°
2026-05-07 06:58 40.55715 -3.74849 13772 ft 206 kts 260°
2026-05-07 06:58 40.55528 -3.76715 14574 ft 205 kts 260°
2026-05-07 06:58 40.55341 -3.78571 15353 ft 204 kts 259°
2026-05-07 06:58 40.55155 -3.80419 16139 ft 203 kts 259°
2026-05-07 06:59 40.54970 -3.82261 16944 ft 203 kts 259°
2026-05-07 06:59 40.54783 -3.84101 17743 ft 203 kts 258°
2026-05-07 06:59 40.54598 -3.85939 18524 ft 203 kts 258°
2026-05-07 06:59 40.54412 -3.87779 19229 ft 203 kts 258°
2026-05-07 07:00 40.54224 -3.89625 19930 ft 204 kts 257°
2026-05-07 07:00 40.54036 -3.91475 20640 ft 204 kts 257°
2026-05-07 07:00 40.53848 -3.93329 21352 ft 205 kts 257°
2026-05-07 07:00 40.53659 -3.95180 22056 ft 205 kts 257°
2026-05-07 07:01 40.53470 -3.97037 22770 ft 205 kts 257°
2026-05-07 07:01 40.53280 -3.98895 23475 ft 205 kts 257°
2026-05-07 07:01 40.53089 -4.00756 24071 ft 205 kts 257°
2026-05-07 07:01 40.52899 -4.02607 24668 ft 204 kts 256°
2026-05-07 07:02 40.52709 -4.04454 25262 ft 203 kts 256°
2026-05-07 07:02 40.52521 -4.06288 25863 ft 202 kts 256°
2026-05-07 07:02 40.52332 -4.08116 26469 ft 201 kts 255°
2026-05-07 07:02 40.52147 -4.09910 27080 ft 200 kts 255°
2026-05-07 07:03 40.51960 -4.11719 27701 ft 199 kts 255°
2026-05-07 07:03 40.51774 -4.13521 28326 ft 199 kts 254°
2026-05-07 07:03 40.51588 -4.15315 28954 ft 198 kts 254°
2026-05-07 07:03 40.51402 -4.17100 29578 ft 197 kts 254°
2026-05-07 07:04 40.51218 -4.18874 30160 ft 196 kts 253°
2026-05-07 07:04 40.51033 -4.20643 30651 ft 195 kts 254°
2026-05-07 07:04 40.50847 -4.22418 31015 ft 201 kts 253°
2026-05-07 07:04 40.50632 -4.24363 30936 ft 229 kts 255°
2026-05-07 07:05 40.50402 -4.26546 30945 ft 253 kts 255°
2026-05-07 07:05 40.50155 -4.28944 30945 ft 277 kts 256°
2026-05-07 07:05 40.49883 -4.31550 30948 ft 299 kts 256°
2026-05-07 07:05 40.49588 -4.34356 30951 ft 321 kts 257°
2026-05-07 07:06 40.49271 -4.37354 30948 ft 341 kts 257°
2026-05-07 07:06 40.48942 -4.40493 30942 ft 351 kts 257°
2026-05-07 07:06 40.48599 -4.43738 30984 ft 367 kts 257°
2026-05-07 07:06 40.48234 -4.47135 31014 ft 384 kts 257°
2026-05-07 07:07 40.47855 -4.50676 31046 ft 399 kts 257°
2026-05-07 07:07 40.47077 -4.54198 30994 ft 407 kts 243°
2026-05-07 07:07 40.45744 -4.57532 31039 ft 418 kts 236°
2026-05-07 07:07 40.44107 -4.60743 31081 ft 429 kts 233°
2026-05-07 07:08 40.42435 -4.64002 31533 ft 431 kts 234°
2026-05-07 07:08 40.40855 -4.67324 32144 ft 430 kts 236°
2026-05-07 07:08 40.39284 -4.70654 32694 ft 429 kts 235°
2026-05-07 07:08 40.37661 -4.73937 33242 ft 428 kts 234°
2026-05-07 07:09 40.36031 -4.77201 33812 ft 428 kts 234°
2026-05-07 07:09 40.34427 -4.80486 34284 ft 428 kts 235°
2026-05-07 07:09 40.32826 -4.83793 34732 ft 429 kts 235°
2026-05-07 07:09 40.31213 -4.87077 35197 ft 430 kts 235°
2026-05-07 07:10 40.29585 -4.90367 35649 ft 431 kts 236°
2026-05-07 07:10 40.27960 -4.93668 36114 ft 432 kts 236°
2026-05-07 07:10 40.26336 -4.96980 36579 ft 433 kts 237°
2026-05-07 07:10 40.24719 -5.00263 36974 ft 436 kts 237°
2026-05-07 07:11 40.23071 -5.03596 37454 ft 436 kts 237°
2026-05-07 07:11 40.21421 -5.06934 37940 ft 437 kts 237°
2026-05-07 07:11 40.19768 -5.10278 38424 ft 438 kts 238°
2026-05-07 07:11 40.18111 -5.13628 38845 ft 439 kts 238°
2026-05-07 07:12 40.16450 -5.16978 39252 ft 439 kts 238°
2026-05-07 07:12 40.14787 -5.20329 39663 ft 439 kts 238°
2026-05-07 07:12 40.13123 -5.23681 40066 ft 440 kts 238°
2026-05-07 07:12 40.11462 -5.27022 40505 ft 439 kts 238°
2026-05-07 07:13 40.09796 -5.30368 40933 ft 439 kts 238°
2026-05-07 07:13 40.08129 -5.33714 41349 ft 439 kts 238°
2026-05-07 07:13 40.06460 -5.37059 41767 ft 440 kts 238°
2026-05-07 07:13 40.04791 -5.40404 42194 ft 440 kts 238°
2026-05-07 07:14 40.03119 -5.43747 42606 ft 440 kts 238°
2026-05-07 07:14 40.01449 -5.47086 43026 ft 439 kts 238°
2026-05-07 07:14 39.99781 -5.50416 43434 ft 439 kts 238°
2026-05-07 07:14 39.98109 -5.53750 43834 ft 439 kts 238°
2026-05-07 07:15 39.96436 -5.57083 44233 ft 439 kts 238°
2026-05-07 07:15 39.94763 -5.60414 44612 ft 439 kts 238°
2026-05-07 07:15 39.93089 -5.63740 44925 ft 440 kts 238°
2026-05-07 07:15 39.91395 -5.67105 44911 ft 448 kts 238°
2026-05-07 07:16 39.87918 -5.74000 44911 ft 462 kts 238°
2026-05-07 07:16 39.84331 -5.81095 44911 ft 476 kts 238°
2026-05-07 07:17 39.80661 -5.88337 44910 ft 481 kts 238°
2026-05-07 07:17 39.76987 -5.95574 44914 ft 480 kts 238°
2026-05-07 07:18 39.73303 -6.02812 44916 ft 480 kts 237°
2026-05-07 07:18 39.69616 -6.10038 44915 ft 480 kts 237°
2026-05-07 07:19 39.65935 -6.17238 44906 ft 479 kts 237°
2026-05-07 07:19 39.62248 -6.24433 44895 ft 478 kts 238°
2026-05-07 07:20 39.58570 -6.31594 44897 ft 477 kts 237°
2026-05-07 07:20 39.54882 -6.38758 44897 ft 477 kts 237°
2026-05-07 07:21 39.51435 -6.46088 44903 ft 476 kts 245°
2026-05-07 07:21 39.48513 -6.53797 44915 ft 477 kts 244°
2026-05-07 07:22 39.45569 -6.61423 44911 ft 476 kts 244°
2026-05-07 07:22 39.42606 -6.69161 44913 ft 477 kts 244°
2026-05-07 07:23 39.39662 -6.76775 44912 ft 477 kts 244°
2026-05-07 07:23 39.36703 -6.84445 44897 ft 476 kts 244°
2026-05-07 07:24 39.33741 -6.92078 44907 ft 476 kts 244°
2026-05-07 07:24 39.30773 -6.99724 44907 ft 476 kts 244°
2026-05-07 07:25 39.26311 -7.11171 44907 ft 476 kts 244°
2026-05-07 07:26 39.23334 -7.18787 44914 ft 476 kts 244°
2026-05-07 07:26 39.19594 -7.25838 44918 ft 479 kts 231°
2026-05-07 07:27 39.15204 -7.32300 44933 ft 479 kts 231°
2026-05-07 07:27 39.10831 -7.38785 44920 ft 479 kts 231°
2026-05-07 07:28 39.06439 -7.45240 44923 ft 479 kts 231°
2026-05-07 07:28 39.02057 -7.51698 44923 ft 479 kts 231°
2026-05-07 07:29 38.97664 -7.58139 44923 ft 479 kts 231°
2026-05-07 07:29 38.93269 -7.64582 44930 ft 479 kts 231°
2026-05-07 07:30 38.88875 -7.71003 44929 ft 479 kts 231°
2026-05-07 07:30 38.84476 -7.77422 44929 ft 478 kts 231°
2026-05-07 07:31 38.80078 -7.83825 44930 ft 478 kts 231°
2026-05-07 07:31 38.75675 -7.90223 44935 ft 478 kts 231°
2026-05-07 07:32 38.71273 -7.96606 44932 ft 479 kts 230°
2026-05-07 07:32 38.66861 -8.02991 44933 ft 479 kts 230°
2026-05-07 07:33 38.62476 -8.09325 44936 ft 478 kts 230°
2026-05-07 07:33 38.58065 -8.15682 44938 ft 477 kts 230°
2026-05-07 07:34 38.53650 -8.22034 44945 ft 478 kts 230°
2026-05-07 07:34 38.49232 -8.28376 44946 ft 478 kts 230°
2026-05-07 07:35 38.44811 -8.34710 44948 ft 478 kts 230°
2026-05-07 07:35 38.40378 -8.41048 44950 ft 479 kts 230°
2026-05-07 07:36 38.35947 -8.47371 44953 ft 479 kts 230°
2026-05-07 07:36 38.31487 -8.53723 44949 ft 481 kts 230°
2026-05-07 07:37 38.27023 -8.60067 44950 ft 481 kts 230°
2026-05-07 07:37 38.22556 -8.66404 44951 ft 481 kts 230°
2026-05-07 07:38 38.18087 -8.72731 44949 ft 481 kts 230°
2026-05-07 07:38 38.13608 -8.79059 44950 ft 481 kts 230°
2026-05-07 07:39 38.09126 -8.85379 44952 ft 481 kts 230°
2026-05-07 07:39 38.04528 -8.91490 44945 ft 483 kts 227°
2026-05-07 07:40 37.99741 -8.97525 44948 ft 482 kts 227°
2026-05-07 07:40 37.95036 -9.03507 44950 ft 482 kts 227°
2026-05-07 07:41 37.90278 -9.09502 44953 ft 482 kts 227°
2026-05-07 07:41 37.85532 -9.15497 44953 ft 482 kts 227°
2026-05-07 07:42 37.80779 -9.21474 44957 ft 482 kts 227°
2026-05-07 07:42 37.76025 -9.27450 44958 ft 482 kts 227°
2026-05-07 07:43 37.71272 -9.33407 44955 ft 482 kts 227°
2026-05-07 07:43 37.66512 -9.39365 44957 ft 482 kts 227°
2026-05-07 07:44 37.62549 -9.44315 44958 ft 482 kts 227°
2026-05-07 07:44 37.57777 -9.50267 44959 ft 485 kts 227°
2026-05-07 07:45 37.52978 -9.56237 44964 ft 484 kts 227°
2026-05-07 07:45 37.48190 -9.62187 44970 ft 484 kts 227°
2026-05-07 07:46 37.43391 -9.68136 44964 ft 484 kts 227°
2026-05-07 07:46 37.38589 -9.74081 44973 ft 484 kts 227°
2026-05-07 07:47 37.33784 -9.80015 44967 ft 484 kts 227°
2026-05-07 07:47 37.28984 -9.85932 44971 ft 481 kts 228°
2026-05-07 07:48 37.24228 -9.91785 44965 ft 479 kts 228°
2026-05-07 07:48 37.19458 -9.97645 44966 ft 480 kts 228°
2026-05-07 07:49 37.14684 -10.03497 44966 ft 480 kts 228°
2026-05-07 07:49 37.09908 -10.09342 44966 ft 480 kts 228°
2026-05-07 07:50 37.05129 -10.15179 44969 ft 480 kts 227°
2026-05-07 07:50 37.00374 -10.20974 44965 ft 475 kts 228°
2026-05-07 07:51 36.95669 -10.26701 44970 ft 471 kts 228°
2026-05-07 07:51 36.90961 -10.32420 44973 ft 472 kts 228°
2026-05-07 07:52 36.86244 -10.38139 44974 ft 472 kts 228°
2026-05-07 07:52 36.81525 -10.43852 44974 ft 472 kts 228°
2026-05-07 07:53 36.76808 -10.49550 44957 ft 472 kts 228°
2026-05-07 07:53 36.72098 -10.55229 44978 ft 471 kts 228°
2026-05-07 07:54 36.67381 -10.60908 44976 ft 472 kts 227°
2026-05-07 07:54 36.62654 -10.66587 44980 ft 472 kts 227°
2026-05-07 07:55 36.57931 -10.72253 44985 ft 472 kts 227°
2026-05-07 07:55 36.53200 -10.77916 44985 ft 472 kts 227°
2026-05-07 07:56 36.48501 -10.83533 44986 ft 471 kts 228°
2026-05-07 07:56 36.43772 -10.89176 44985 ft 472 kts 227°
2026-05-07 07:57 36.39032 -10.94821 44983 ft 474 kts 227°
2026-05-07 07:57 36.34275 -11.00475 44989 ft 473 kts 227°
2026-05-07 07:58 36.29521 -11.06117 44992 ft 473 kts 227°
2026-05-07 07:58 36.24762 -11.11753 44992 ft 473 kts 227°
2026-05-07 07:59 36.20012 -11.17370 44991 ft 471 kts 228°
2026-05-07 07:59 36.15268 -11.22972 44992 ft 472 kts 228°
2026-05-07 08:00 36.10516 -11.28569 44991 ft 471 kts 228°
2026-05-07 08:00 36.05774 -11.34148 44991 ft 469 kts 227°
2026-05-07 08:01 36.01045 -11.39701 44991 ft 470 kts 227°
2026-05-07 08:01 35.96246 -11.45175 44974 ft 473 kts 223°
2026-05-07 08:02 35.90888 -11.49899 44999 ft 473 kts 220°
2026-05-07 08:02 35.85536 -11.54633 45007 ft 474 kts 220°
2026-05-07 08:03 35.80161 -11.59327 45008 ft 473 kts 220°
2026-05-07 08:03 35.74797 -11.64035 45010 ft 473 kts 220°
2026-05-07 08:04 35.69423 -11.68725 45010 ft 473 kts 220°
2026-05-07 08:04 35.64065 -11.73403 44997 ft 472 kts 220°
2026-05-07 08:05 35.58704 -11.78073 45000 ft 472 kts 220°
2026-05-07 08:05 35.53376 -11.82706 45000 ft 472 kts 220°
2026-05-07 08:06 35.48012 -11.87364 45000 ft 472 kts 220°
2026-05-07 08:06 35.42647 -11.92013 45006 ft 472 kts 220°
2026-05-07 08:07 35.37278 -11.96659 45006 ft 472 kts 220°
2026-05-07 08:07 35.31905 -12.01301 45006 ft 472 kts 220°
2026-05-07 08:08 35.26533 -12.05934 45009 ft 471 kts 220°
2026-05-07 08:08 35.21165 -12.10557 45007 ft 472 kts 220°
2026-05-07 08:09 35.15800 -12.15168 45004 ft 472 kts 220°
2026-05-07 08:09 35.10436 -12.19770 45010 ft 471 kts 220°
2026-05-07 08:10 35.05072 -12.24368 45014 ft 471 kts 220°
2026-05-07 08:10 34.99704 -12.28959 45008 ft 471 kts 220°
2026-05-07 08:11 34.94335 -12.33544 45011 ft 471 kts 220°
2026-05-07 08:11 34.88965 -12.38123 45011 ft 471 kts 220°
2026-05-07 08:12 34.83603 -12.42686 45013 ft 470 kts 219°
2026-05-07 08:12 34.78230 -12.47254 45017 ft 471 kts 219°
2026-05-07 08:13 34.72890 -12.51783 45016 ft 471 kts 219°
2026-05-07 08:13 34.67517 -12.56335 45016 ft 471 kts 219°
2026-05-07 08:14 34.62146 -12.60877 45017 ft 471 kts 219°
2026-05-07 08:14 34.56770 -12.65416 45023 ft 469 kts 219°
2026-05-07 08:15 34.51401 -12.69944 45018 ft 470 kts 219°
2026-05-07 08:15 34.46027 -12.74466 45021 ft 470 kts 219°
2026-05-07 08:16 34.40657 -12.78980 45014 ft 470 kts 219°
2026-05-07 08:16 34.35282 -12.83489 45014 ft 470 kts 219°
2026-05-07 08:17 34.29905 -12.87993 45004 ft 469 kts 219°
2026-05-07 08:17 34.24536 -12.92486 45020 ft 470 kts 219°
2026-05-07 08:18 34.19195 -12.97011 45019 ft 469 kts 220°
2026-05-07 08:18 34.13837 -13.01518 45019 ft 469 kts 219°
2026-05-07 08:19 34.08482 -13.06028 45016 ft 469 kts 219°
2026-05-07 08:19 34.03123 -13.10528 45017 ft 469 kts 219°
2026-05-07 08:20 33.97806 -13.14988 45026 ft 470 kts 219°
2026-05-07 08:20 33.92442 -13.19480 45024 ft 469 kts 219°
2026-05-07 08:21 33.87060 -13.23981 45030 ft 472 kts 219°
2026-05-07 08:21 33.81672 -13.28478 45030 ft 471 kts 219°
2026-05-07 08:22 33.76290 -13.32965 45030 ft 471 kts 219°
2026-05-07 08:22 33.70913 -13.37438 45027 ft 469 kts 219°
2026-05-07 08:23 33.65544 -13.41902 45026 ft 470 kts 219°
2026-05-07 08:23 33.60167 -13.46361 45023 ft 470 kts 219°
2026-05-07 08:24 33.54789 -13.50817 45039 ft 470 kts 219°
2026-05-07 08:24 33.49406 -13.55269 45038 ft 470 kts 219°
2026-05-07 08:25 33.44029 -13.59709 45031 ft 467 kts 219°
2026-05-07 08:25 33.38662 -13.64136 45030 ft 469 kts 219°
2026-05-07 08:26 33.30605 -13.70766 45027 ft 469 kts 219°
2026-05-07 08:26 33.25237 -13.75175 45027 ft 469 kts 219°
2026-05-07 08:27 33.19862 -13.79583 45032 ft 469 kts 219°
2026-05-07 08:27 33.14489 -13.83984 45037 ft 469 kts 219°
2026-05-07 08:28 33.09098 -13.88360 45030 ft 468 kts 219°
2026-05-07 08:28 33.03709 -13.92730 45029 ft 468 kts 219°
2026-05-07 08:29 32.98325 -13.97091 45027 ft 469 kts 219°
2026-05-07 08:29 32.92935 -14.01448 44998 ft 468 kts 219°
2026-05-07 08:30 32.87548 -14.05800 44983 ft 468 kts 219°
2026-05-07 08:30 32.82165 -14.10138 44998 ft 468 kts 219°
2026-05-07 08:31 32.76779 -14.14474 44994 ft 468 kts 219°
2026-05-07 08:31 32.72305 -14.18070 44993 ft 468 kts 219°
2026-05-07 08:32 32.66058 -14.23084 44997 ft 464 kts 219°
2026-05-07 08:32 32.60701 -14.27380 44997 ft 465 kts 219°
2026-05-07 08:33 32.56209 -14.30973 44998 ft 465 kts 219°
2026-05-07 08:33 32.50844 -14.35262 44998 ft 465 kts 219°
2026-05-07 08:34 32.45477 -14.39545 45001 ft 465 kts 219°
2026-05-07 08:34 32.40113 -14.43820 45001 ft 465 kts 219°
2026-05-07 08:35 32.34757 -14.48083 45005 ft 467 kts 219°
2026-05-07 08:35 32.29365 -14.52365 45012 ft 465 kts 219°
2026-05-07 08:36 32.23984 -14.56637 45006 ft 467 kts 219°
2026-05-07 08:36 32.18598 -14.60902 45005 ft 466 kts 219°
2026-05-07 08:37 32.13215 -14.65163 45005 ft 466 kts 219°
2026-05-07 08:37 32.07826 -14.69419 45005 ft 466 kts 219°
2026-05-07 08:38 32.02439 -14.73669 45009 ft 466 kts 219°
2026-05-07 08:38 31.97063 -14.77904 45013 ft 466 kts 219°
2026-05-07 08:39 31.91673 -14.82144 45014 ft 465 kts 219°
2026-05-07 08:39 31.86286 -14.86376 45014 ft 466 kts 219°
2026-05-07 08:40 31.80898 -14.90602 45013 ft 466 kts 219°
2026-05-07 08:40 31.75507 -14.94825 45011 ft 466 kts 219°
2026-05-07 08:41 31.70122 -14.99035 45012 ft 464 kts 219°
2026-05-07 08:41 31.64730 -15.03248 45022 ft 466 kts 218°
2026-05-07 08:42 31.59383 -15.07417 45016 ft 465 kts 218°
2026-05-07 08:42 31.53988 -15.11620 45016 ft 465 kts 218°
2026-05-07 08:43 31.48598 -15.15811 45019 ft 465 kts 218°
2026-05-07 08:43 31.43200 -15.20004 44989 ft 465 kts 218°
2026-05-07 08:44 31.37814 -15.24180 45013 ft 465 kts 218°
2026-05-07 08:44 31.32422 -15.28357 45013 ft 465 kts 218°
2026-05-07 08:45 31.26846 -15.32227 45025 ft 468 kts 213°
2026-05-07 08:45 31.21135 -15.35885 45030 ft 468 kts 214°
2026-05-07 08:46 31.15419 -15.39527 45030 ft 468 kts 213°
2026-05-07 08:46 31.09705 -15.43165 45025 ft 468 kts 214°
2026-05-07 08:47 31.03989 -15.46801 45028 ft 468 kts 213°
2026-05-07 08:47 30.98274 -15.50429 45028 ft 468 kts 214°
2026-05-07 08:48 30.92562 -15.54052 45029 ft 468 kts 213°
2026-05-07 08:48 30.86843 -15.57673 45029 ft 468 kts 213°
2026-05-07 08:49 30.81133 -15.61284 45024 ft 466 kts 213°
2026-05-07 08:49 30.75424 -15.64890 45026 ft 467 kts 213°
2026-05-07 08:50 30.69751 -15.68467 45022 ft 468 kts 213°
2026-05-07 08:50 30.64032 -15.72070 45025 ft 467 kts 213°
2026-05-07 08:51 30.58314 -15.75666 45025 ft 467 kts 213°
2026-05-07 08:51 30.52599 -15.79255 45032 ft 466 kts 213°
2026-05-07 08:52 30.46886 -15.82840 45032 ft 467 kts 213°
2026-05-07 08:52 30.41168 -15.86421 45031 ft 467 kts 213°
2026-05-07 08:53 30.35457 -15.89994 45029 ft 467 kts 213°
2026-05-07 08:53 30.29739 -15.93566 45031 ft 467 kts 213°
2026-05-07 08:54 30.24023 -15.97133 45021 ft 466 kts 213°
2026-05-07 08:54 30.18307 -16.00694 45027 ft 467 kts 213°
2026-05-07 08:55 30.12582 -16.04257 45029 ft 468 kts 213°
2026-05-07 08:55 30.06845 -16.07821 45030 ft 468 kts 213°
2026-05-07 08:56 30.01121 -16.11375 45027 ft 467 kts 213°
2026-05-07 08:56 29.95391 -16.14925 45029 ft 467 kts 213°
2026-05-07 08:57 29.89660 -16.18473 45028 ft 467 kts 213°
2026-05-07 08:57 29.83932 -16.22014 45028 ft 468 kts 213°
2026-05-07 08:58 29.78236 -16.25530 45031 ft 467 kts 213°
2026-05-07 08:58 29.72502 -16.29066 45031 ft 468 kts 213°
2026-05-07 08:59 29.66750 -16.32608 45034 ft 470 kts 213°
2026-05-07 08:59 29.60989 -16.36153 45025 ft 469 kts 213°
2026-05-07 09:00 29.55752 -16.40490 45032 ft 462 kts 224°
2026-05-07 09:00 29.53281 -16.42834 44849 ft 455 kts 224°
2026-05-07 09:00 29.50860 -16.45101 44193 ft 443 kts 224°
2026-05-07 09:01 29.48503 -16.47313 43615 ft 431 kts 224°
2026-05-07 09:01 29.46222 -16.49472 43057 ft 419 kts 225°
2026-05-07 09:01 29.43993 -16.51580 42517 ft 412 kts 225°
2026-05-07 09:01 29.41787 -16.53656 41969 ft 409 kts 225°
2026-05-07 09:02 29.39578 -16.55735 41446 ft 414 kts 225°
2026-05-07 09:02 29.37334 -16.57851 40900 ft 422 kts 226°
2026-05-07 09:02 29.35045 -16.60003 40340 ft 428 kts 226°
2026-05-07 09:02 29.32728 -16.62175 39774 ft 432 kts 226°
2026-05-07 09:03 29.30395 -16.64363 39201 ft 434 kts 226°
2026-05-07 09:03 29.28052 -16.66563 38602 ft 436 kts 226°
2026-05-07 09:03 29.25704 -16.68765 38003 ft 436 kts 226°
2026-05-07 09:03 29.23356 -16.70962 37423 ft 436 kts 226°
2026-05-07 09:04 29.21036 -16.73136 36858 ft 437 kts 226°
2026-05-07 09:04 29.18685 -16.75338 36283 ft 438 kts 226°
2026-05-07 09:04 29.16324 -16.77545 35704 ft 438 kts 226°
2026-05-07 09:04 29.13963 -16.79752 35125 ft 438 kts 225°
2026-05-07 09:05 29.11598 -16.81961 34545 ft 439 kts 225°
2026-05-07 09:05 29.09233 -16.84170 33985 ft 439 kts 225°
2026-05-07 09:05 29.06870 -16.86373 33420 ft 439 kts 225°
2026-05-07 09:05 29.04491 -16.88575 32844 ft 442 kts 224°
2026-05-07 09:06 29.01833 -16.90424 32171 ft 456 kts 210°
2026-05-07 09:06 28.98780 -16.91545 31560 ft 468 kts 197°
2026-05-07 09:06 28.95520 -16.91932 31021 ft 472 kts 189°
2026-05-07 09:06 28.92233 -16.92159 30548 ft 474 kts 188°
2026-05-07 09:07 28.88950 -16.92357 30063 ft 470 kts 188°
2026-05-07 09:07 28.85705 -16.92564 29509 ft 464 kts 188°
2026-05-07 09:07 28.82497 -16.92789 28961 ft 459 kts 188°
2026-05-07 09:07 28.79322 -16.93007 28426 ft 455 kts 188°
2026-05-07 09:08 28.76177 -16.93209 27911 ft 450 kts 188°
2026-05-07 09:08 28.73064 -16.93412 27376 ft 447 kts 188°
2026-05-07 09:08 28.69973 -16.93622 26885 ft 443 kts 188°
2026-05-07 09:08 28.66909 -16.93828 26405 ft 439 kts 188°
2026-05-07 09:09 28.63870 -16.94027 25941 ft 435 kts 188°
2026-05-07 09:09 28.60860 -16.94225 25486 ft 431 kts 188°
2026-05-07 09:09 28.57916 -16.94422 25047 ft 428 kts 188°
2026-05-07 09:09 28.54916 -16.94621 24604 ft 424 kts 188°
2026-05-07 09:10 28.52023 -16.94812 24189 ft 421 kts 188°
2026-05-07 09:10 28.49111 -16.95004 23773 ft 418 kts 188°
2026-05-07 09:10 28.46220 -16.95196 23308 ft 415 kts 188°
2026-05-07 09:10 28.43347 -16.95387 22802 ft 412 kts 188°
2026-05-07 09:11 28.40491 -16.95575 22339 ft 410 kts 188°
2026-05-07 09:11 28.37660 -16.95761 21736 ft 401 kts 188°
2026-05-07 09:11 28.35022 -16.95923 21002 ft 365 kts 188°
2026-05-07 09:11 28.32496 -16.96096 20235 ft 350 kts 188°
2026-05-07 09:12 28.30205 -16.96243 19417 ft 312 kts 189°
2026-05-07 09:12 28.28134 -16.96377 18491 ft 290 kts 189°
2026-05-07 09:12 28.26140 -16.96520 17463 ft 284 kts 189°
2026-05-07 09:12 28.24179 -16.96653 16452 ft 280 kts 188°
2026-05-07 09:13 28.22214 -16.96781 15478 ft 277 kts 188°
2026-05-07 09:13 28.20309 -16.96903 14540 ft 274 kts 188°
2026-05-07 09:13 28.18409 -16.97031 13598 ft 273 kts 188°
2026-05-07 09:13 28.16524 -16.96961 12516 ft 275 kts 170°
2026-05-07 09:14 28.14734 -16.96206 11526 ft 274 kts 160°
2026-05-07 09:14 28.12977 -16.95396 10597 ft 271 kts 160°
2026-05-07 09:14 28.11235 -16.94625 9666 ft 267 kts 160°
2026-05-07 09:14 28.09522 -16.93869 8660 ft 261 kts 160°
2026-05-07 09:15 28.07856 -16.93125 7911 ft 252 kts 160°
2026-05-07 09:15 28.06228 -16.92399 7817 ft 255 kts 160°
2026-05-07 09:15 28.04581 -16.91668 7534 ft 253 kts 161°
2026-05-07 09:15 28.02878 -16.91321 7138 ft 249 kts 188°
2026-05-07 09:16 28.01298 -16.91959 7002 ft 239 kts 216°
2026-05-07 09:16 28.00145 -16.93367 6980 ft 244 kts 243°
2026-05-07 09:16 27.99478 -16.95092 7028 ft 239 kts 249°
2026-05-07 09:16 27.98826 -16.96831 7028 ft 241 kts 249°
2026-05-07 09:17 27.98167 -16.98578 7018 ft 240 kts 249°
2026-05-07 09:17 27.97518 -17.00306 7017 ft 238 kts 249°
2026-05-07 09:17 27.96870 -17.02035 6813 ft 244 kts 249°
2026-05-07 09:17 27.96213 -17.03781 6221 ft 228 kts 248°
2026-05-07 09:18 27.95592 -17.05429 5624 ft 231 kts 248°
2026-05-07 09:18 27.94974 -17.07075 5053 ft 231 kts 248°
2026-05-07 09:18 27.94135 -17.08638 4396 ft 234 kts 224°
2026-05-07 09:18 27.92762 -17.09344 3703 ft 218 kts 192°
2026-05-07 09:19 27.91257 -17.09248 3067 ft 219 kts 163°
2026-05-07 09:19 27.89985 -17.08373 2997 ft 215 kts 137°
2026-05-07 09:19 27.89199 -17.06940 2996 ft 218 kts 108°
2026-05-07 09:19 27.89098 -17.05245 2996 ft 219 kts 80°
2026-05-07 09:20 27.89491 -17.03588 3033 ft 220 kts 73°
2026-05-07 09:20 27.89910 -17.01920 3025 ft 221 kts 74°
2026-05-07 09:20 27.90314 -17.00236 3017 ft 222 kts 75°
2026-05-07 09:20 27.90717 -16.98545 3036 ft 230 kts 75°
2026-05-07 09:21 27.90916 -16.96764 3004 ft 224 kts 84°
2026-05-07 09:21 27.91261 -16.95050 2995 ft 223 kts 70°
2026-05-07 09:21 27.91831 -16.93417 3004 ft 223 kts 68°
2026-05-07 09:21 27.92400 -16.91789 3003 ft 222 kts 68°
2026-05-07 09:22 27.92967 -16.90158 3002 ft 222 kts 68°
2026-05-07 09:22 27.93533 -16.88531 3000 ft 223 kts 68°
2026-05-07 09:22 27.94100 -16.86904 3000 ft 222 kts 68°
2026-05-07 09:22 27.94666 -16.85277 3000 ft 223 kts 68°
2026-05-07 09:23 27.95238 -16.83651 2997 ft 223 kts 68°
2026-05-07 09:23 27.95807 -16.82022 2999 ft 223 kts 68°
2026-05-07 09:23 27.96182 -16.80943 2998 ft 222 kts 68°
2026-05-07 09:23 27.96940 -16.78765 2997 ft 223 kts 68°
2026-05-07 09:24 27.97320 -16.77685 2999 ft 222 kts 68°
2026-05-07 09:24 27.97890 -16.76059 2997 ft 222 kts 68°
2026-05-07 09:24 27.98460 -16.74420 2786 ft 224 kts 68°
2026-05-07 09:24 27.99029 -16.72785 2575 ft 219 kts 68°
2026-05-07 09:25 27.99505 -16.71426 2393 ft 156 kts 67°
2026-05-07 09:25 27.99858 -16.70415 2335 ft 127 kts 68°
2026-05-07 09:25 28.00173 -16.69508 2193 ft 116 kts 66°
2026-05-07 09:25 28.00454 -16.68700 2051 ft 106 kts 66°
2026-05-07 09:26 28.00718 -16.67950 1929 ft 102 kts 67°
2026-05-07 09:26 28.00982 -16.67192 1787 ft 103 kts 67°
2026-05-07 09:26 28.01242 -16.66443 1660 ft 103 kts 66°
2026-05-07 09:26 28.01513 -16.65666 1508 ft 109 kts 65°
2026-05-07 09:27 28.01788 -16.64879 1365 ft 107 kts 66°
2026-05-07 09:27 28.02059 -16.64103 1210 ft 102 kts 66°
2026-05-07 09:27 28.02579 -16.62616 950 ft 104 kts 67°
2026-05-07 09:28 28.02851 -16.61834 811 ft 106 kts 69°
2026-05-07 09:28 28.03107 -16.61092 690 ft 101 kts 70°
2026-05-07 09:28 28.03375 -16.60333 565 ft 107 kts 71°
2026-05-07 09:28 28.03652 -16.59537 392 ft 105 kts 70°
2026-05-07 09:29 28.03908 -16.58808 266 ft 95 kts 69°
2026-05-07 09:29 28.04131 -16.58164 202 ft 81 kts 70°
2026-05-07 09:29 28.04322 -16.57622 193 ft 72 kts 68°
2026-05-07 09:29 28.04495 -16.57142 199 ft 48 kts 65°
2026-05-07 09:30 28.04618 -16.56936 206 ft 27 kts 41°
2026-05-07 09:30 28.04719 -16.56811 212 ft 14 kts 34°
2026-05-07 09:30 28.04771 -16.56833 216 ft 9 kts 291°
2026-05-07 09:30 28.04762 -16.56903 216 ft 9 kts 244°
2026-05-07 09:31 28.04739 -16.56969 217 ft 8 kts 246°
2026-05-07 09:31 28.04717 -16.57024 218 ft 7 kts 249°
2026-05-07 09:31 28.04701 -16.57075 219 ft 7 kts 252°
2026-05-07 09:31 28.04703 -16.57129 219 ft 6 kts 294°
2026-05-07 09:32 28.04709 -16.57140 219 ft 0 kts 307°
2026-05-07 09:32 28.04716 -16.57148 219 ft 2 kts 318°
2026-05-07 09:32 28.04727 -16.57156 219 ft 1 kts 328°
2026-05-07 09:32 28.04745 -16.57167 220 ft 3 kts 333°
2026-05-07 09:33 28.04782 -16.57214 221 ft 12 kts 277°
2026-05-07 09:33 28.04754 -16.57304 221 ft 12 kts 244°
2026-05-07 09:33 28.04726 -16.57388 221 ft 9 kts 246°
2026-05-07 09:33 28.04742 -16.57430 222 ft 6 kts 342°
2026-05-07 09:34 28.04778 -16.57452 222 ft 6 kts 340°
2026-05-07 09:34 28.04799 -16.57461 222 ft 0 kts 340°